Location: Rancho Santa Fe Post Office
(33.0184°N, 117.2026°W)
Time: 01:20:39
(UTC+00:00)

Cosmos 1763 Rocket - Pass Details

Date: 10 September 2024
Orbit: 730 x 776 km, 74.0° (Epoch: 06 October)

Event Time Altitude Azimuth Distance (km) Brightness Sun altitude
Rises 12:37:54 0° 331° (NNW) 3,191 6.5 -11.5°
Reaches altitude 10° 12:40:28 10° 321° (NW) 2,271 5.7 -11.0°
Maximum altitude 12:44:56 31° 260° (W) 1,304 4.2 -10.1°
Drops below altitude 10° 12:49:28 10° 199° (SSW) 2,286 5.7 -9.1°
Sets 12:52:04 0° 189° (S) 3,215 6.5 -8.6°
